Location: Northam
(31.6525°S, 116.6655°E)
Time: 04:09:01
(UTC+08:00)

AO-73 - Visible Passes

Search period start: 24 July 2021 00:00
Search period end: 03 August 2021 00:00
Orbit: 580 x 662 km, 97.6° (Epoch: 23 July)

Date Brightness Start Highest point End Pass type
(mag) Time Alt. Az. Time Alt. Az. Time Alt. Az.
24 Jul ? 17:56:35 10° SSW 17:59:35 18° WSW 18:02:31 10° WNW visible
25 Jul ? 18:15:44 10° SW 18:17:07 11° WSW 18:18:29 10° W visible
30 Jul ? 18:07:35 10° SW 18:09:41 13° WSW 18:11:45 10° W visible
